Regional Weather Roundup
Issued by NWS

Home | Current Version | Previous Version | Text Only | Print | Product List | Glossary Off
Versions: 1 2 3 4 5 6 7 8 9 10 11 12 13 14 15 16 17 18 19 20 21 22 23 24 25 26 27 28 29 30 31 32 33 34 35 36 37 38 39 40 41 42 43 44 45 46 47 48 49 50

000
ASUS43 KDTX 272110
RWRMI
MICHIGAN HOURLY REGIONAL WEATHER ROUNDUP
NATIONAL WEATHER SERVICE DETROIT/PONTIAC MI
400 PM EST TUE JAN 27 2015

NOTE: "FAIR" INDICATES FEW OR NO CLOUDS BELOW 12,000 FEET WITH NO
SIGNIFICANT WEATHER AND/OR OBSTRUCTION TO VISIBILITY.

MIZ047>049-052>055-059>063-066>070-074>076-081>083-272200-
SOUTHEAST LOWER MICHIGAN

CITY           SKY/WX    TMP DP  RH WIND       PRES   REMARKS
ADRIAN         SUNNY     26  12  55 N10       30.14R
ALMA           SUNNY     26   8  48 NW7       30.18R
ANN ARBOR      SUNNY     28  12  51 N8        30.13R
BAD AXE        SUNNY     22  14  71 N12       30.16R
DETROIT CITY   SUNNY     28  11  48 N12       30.12R
DETROIT        MOSUNNY   28  12  51 NW10      30.13R
FLINT          SUNNY     26  13  57 N15G21    30.16R
GROSSE ILE     SUNNY     27  12  54 N9        30.11R
HILLSDALE      SUNNY     25  11  54 NW7       30.12R
HOWELL         MOSUNNY   23  11  60 N9        30.13R

CITY           SKY/WX    TMP DP  RH WIND       PRES   REMARKS
JACKSON        MOSUNNY   27  12  53 N8        30.14R
LAMBERTVILLE   MOSUNNY   28  14  54 NW7       30.14R
LANSING        MOSUNNY   26  12  55 N8        30.17R
LAPEER         NOT AVBL
MASON          MOSUNNY   24  12  59 NW10      30.15R
MONROE         SUNNY     27  12  54 NW9       30.12R
MT. CLEMENS    MOSUNNY   25  13  60 N15       30.11R
PONTIAC        MOSUNNY   25   7  46 N12G21    30.11R
PORT HOPE        N/A     23  12  62 N12       30.15R
PORT HURON     CLOUDY    23  14  68 N10       30.14R
TRI CITIES     SUNNY     25  12  58 NE7       30.19R
YPSILANTI      SUNNY     30  12  47 N14       30.13R
$$
MIZ043>046-050>051-056>058-064>065-071>073-077>080-272200-
SOUTHWEST LOWER MICHIGAN

CITY           SKY/WX    TMP DP  RH WIND       PRES   REMARKS
BATTLE CREEK   SUNNY     28  12  51 N10       30.16R
BENTON HARBOR  SUNNY     26  12  55 VRB6      30.19R
BIG RAPIDS     SUNNY     26   8  46 N6        30.17R
COLDWATER      SUNNY     26  12  54 N10       30.15R
HOLLAND        SUNNY     29  10  45 VRB5      30.20R
GRAND RAPIDS   SUNNY     29  10  45 CALM      30.18S
KALAMAZOO      SUNNY     27  12  53 N9        30.17R
MARSHALL       SUNNY     26  11  54 NW5       30.15R
MUSKEGON       SUNNY     28  13  53 W10       30.21R
$$
MIZ016>042-272200-
NORTHERN LOWER MICHIGAN

CITY           SKY/WX    TMP DP  RH WIND       PRES   REMARKS
ALPENA         SUNNY     20   6  55 N8        30.21R
BEAVER ISLAND  SUNNY     19   4  53 CALM      30.24R
BELLAIRE       SUNNY     26   2  36 NW3       30.22S
CADILLAC       SUNNY     26   2  36 NW6       30.14R
CHARLEVOIX     SUNNY     20  12  72 N7        30.26S
FRANKFORT      CLEAR     25  16  66 N6        30.22R
GAYLORD        SUNNY     22  -2  35 N3        30.15R
GRAYLING       SUNNY     23   0  37 CALM      30.17R
HARBOR SPRINGS SUNNY     22  11  62 SW3       30.22R
HOUGHTON LAKE  SUNNY     25  -2  31 NW8       30.16R
MANISTEE       SUNNY     27  12  54 N8        30.22R
OSCODA         SUNNY     22   9  56 N10       30.18R
PELLSTON       SUNNY     22   4  46 N3        30.22S
TRAVERSE CITY  SUNNY     24   6  46 NE6       30.21R
$$
MIZ007>008-015-272200-
EASTERN UPPER MICHIGAN

CITY           SKY/WX    TMP DP  RH WIND       PRES   REMARKS
KINROSS        SUNNY     27   0  31 CALM      30.22S
MACKINAC ISLAN SUNNY     20  -5  32 CALM      30.22S
NEWBERRY       SUNNY     21  -4  33 NW5       30.21R
S. S. MARIE    SUNNY     20  -4  34 NW7       30.22S
$$
MIZ004>006-011>014-085-272200-
CENTRAL UPPER MICHIGAN

CITY           SKY/WX    TMP DP  RH WIND       PRES   REMARKS
MANISTIQUE     SUNNY     20  11  67 SW3       30.23S
ESCANABA       CLOUDY    25  16  68 E3        30.23S
MENOMINEE      MOSUNNY   27  16  63 E6        30.23R
SAWYER-GWINN   FLURRIES  23  16  74 SW7       30.18R
$$
MIZ001>003-009>011-084-272200-
WESTERN UPPER MICHIGAN

CITY           SKY/WX    TMP DP  RH WIND       PRES   REMARKS
IRON MOUNTAIN  CLOUDY    23  16  74 SW6       30.18R
HOUGHTON       CLOUDY    25  18  74 S7        30.15F
COPPER HARBOR    N/A     26  19  74 VRB6      30.20R
IRONWOOD       CLOUDY    27  25  93 S7        30.12S
$$

ABBREVIATIONS USED IN REMARKS
   TC - TEMPERATURE IN CELSIUS
  WCI - WIND CHILL INDEX
   HX - HEAT INDEX
  VSB - VISIBILITY




USA.gov is the U.S. government's official web portal to all federal, state and local government web resources and services.